SCP
0 0 0 0 0 0 0 0 0 0 0 0 0 0 0 0 0 0 0 0 0 0 0 0 0 0 0 0 0 0 0 0 0 0 0 0 0 0 0 0 0 0 0 0 0 0 0 0 0 0 0 -0 -0 -0
0 0 0 0 0 0 0 0 0 0 0 0 0 0 0 0 0 0 0 0 0 0 0 0 0 0 0 0 0 0 0 0 0 0 0 0 0 0 0 0 0 0 0 0 0 0 0 0 0 0 0 -0 -0 -0
0 0 0 0 0 0 0 0 0 0 0 0 0 -0 0 0 0 0 0 0 0 0 0 0 0 0 0 0 0 0 0 0 0 0 0 0 0 0 0 0 0 0 0 0 0 0 0 0 0 0 0 -0 -0 -0
0 0 0 0 0 0 0 0 0 0 0 0 0 0 0 0 0 0 0 0 0 0 0 0 0 0 0 0 0 0 0 0 0 0 0 0 0 0 0 0 0 0 0 0 0 0 0 0 -0 0 -0 -0 -0 -0
0 0 0 0 0 0 0 0 0 0 0 0 0 0 0 0 0 0 0 0 0 0 0 0 0 -0 0 0 0 0 0 0 0 0 0 0 0 0 0 0 -0 0 0 0 0 0 -0 -0 -0 0 -0 -0 -0 -0
0 0 0 0 0 0 0 0 0 0 0 0 0 0 0 0 0 0 0 0 0 0 0 0 0 0 0 0 0 0 0 0 0 0 0 0 0 0 0 0 0 0 0 0 0 -0 -0 -0 -0 -0 0 0 0 0
0 0 0 0 0 0 0 0 0 0 0 0 0 0 0 0 0 0 0 0 0 0 0 0 0 0 0 0 0 0 0 0 0 0 0 0 0 0 0 0 0 0 0 0 0 0 -0 -0 -0 -0 0 0 0 0
0 0 0 0 0 0 0 0 0 0 0 0 0 0 0 0 0 0 0 0 0 0 0 0 0 0 0 0 0 0 0 0 0 0 0 0 0 0 -0 0 0 0 0 0 0 -0 -0 -0 -0 0 0 0 0 0
0 0 0 0 0 0 0 0 -0 0 0 0 0 0 0 0 0 0 0 0 0 0 0 0 0 0 0 0 0 0 0 0 0 0 0 0 0 -0 0 0 0 0 0 0 -0 -0 0 -0 -0 0 0 0 0 0
0 0 0 0 0 0 0 0 0 0 0 0 0 0 0 0 -0 0 0 0 0 0 0 0 0 0 0 0 0 0 0 0 0 -0 -0 0 -0 0 0 0 0 0 0 0 -0 -0 -0 -0 -0 0 0 0 0 0
0 0 0 0 0 0 -0 -0 0 0 0 0 0 0 0 0 0 0 0 0 0 0 0 0 -0 0 0 0 0 0 0 0 0 0 -0 -0 0 0 0 0 0 0 0 0 -0 -0 0 0 -0 0 0 0 0 0
0 0 0 0 0 0 -0 -0 0 0 0 0 0 0 0 0 0 0 -0 -0 -0 0 0 -0 0 0 0 0 0 0 0 0 0 0 -0 -0 0 0 0 0 0 0 0 -0 -0 0 0 0 0 0 0 0 0 0
-0 0 0 0 0 0 0 0 0 -0 0 0 0 0 0 0 0 -0 -0 0 -0 -0 0 0 -0 -0 0 0 0 0 0 0 -0 -0 0 0 0 0 0 0 0 0 -0 -0 0 0 -0 -0 -0 0 0 0 0 0
-0 0 0 0 0 0 -0 0 0 0 0 0 0 0 0 -0 -0 0 0 0 0 0 0 0 -0 -0 0 0 0 0 0 -0 -0 0 0 -0 0 0 0 0 0 -0 -0 -0 -0 -0 -0 -0 -0 0 0 0 0 0
-0 -0 0 0 0 0 0 0 0 0 0 0 0 0 0 0 0 0 -0 -0 -0 0 0 0 0 -0 -0 0 0 0 -0 0 0 0 0 -0 -0 -0 -0 -0 -0 -0 -0 -0 -0 -0 -0 -0 -0 -0 -0 -0 -0 0
-0 0 0 -0 -0 -0 0 0 0 0 0 0 0 0 0 0 0 -0 -0 -0 0 -0 0 0 0 -0 0 0 0 0 0 0 -0 -0 0 0 0 0 0 0 0 0 -0 -0 -0 -0 -0 -0 -0 -0 0 -0 -0 -0
0 0 -0 -0 0 0 0 0 0 0 0 0 0 0 0 0 0 0 0 0 0 -0 0 0 0 0 0 0 0 0 0 -0 0 0 0 -0 0 -0 0 -0 0 0 0 0 0 -0 -0 -0 -0 -0 -0 -0 0 0
0 0 0 -0 0 0 0 0 0 0 0 0 0 0 -0 -0 0 -0 -0 -0 -0 0 0 0 0 0 0 0 0 -0 0 0 0 0 -0 -0 -0 0 -0 0 -0 0 0 0 0 0 0 -0 -0 -0 -0 -0 -0 -0
0 0 0 -0 0 0 0 0 0 0 0 0 0 0 0 0 0 -0 -0 0 0 0 0 0 0 0 0 0 -0 -0 0 0 0 -0 -0 -0 -0 -0 -0 -0 -0 0 -0 -0 -0 0 0 -0 0 0 -0 0 0 0
0 -0 -0 0 0 0 0 0 0 0 0 0 0 0 0 0 0 -0 0 -0 0 0 0 0 0 0 0 0 0 0 0 0 0 -0 -0 -0 -0 -0 -0 0 0 -0 0 0 0 -0 0 -0 -0 0 0 0 0 -0
0 0 0 0 0 0 0 0 0 0 0 0 0 0 0 -0 -0 -0 -0 0 0 0 0 0 0 0 0 0 0 0 0 0 0 -0 -0 -0 -0 -0 -0 -0 -0 -0 -0 0 0 0 0 0 0 -0 -0 -0 -0 -0
0 0 0 0 0 0 0 0 0 0 0 0 0 0 -0 -0 -0 -0 0 0 0 0 0 0 0 0 0 0 0 0 0 -0 -0 -0 -0 0 -0 -0 -0 0 0 0 0 0 0 0 0 0 0 0 0 -0 -0 -0
0 0 0 0 0 0 0 0 0 0 0 0 -0 0 -0 0 0 0 0 0 0 0 0 0 0 0 0 0 0 0 -0 -0 -0 -0 -0 -0 -0 0 0 -0 0 0 0 0 0 0 0 0 0 0 0 0 0 -0
0 0 0 0 0 0 0 0 0 0 0 0 0 0 0 0 0 0 0 0 0 0 0 0 0 0 0 0 0 0 0 0 -0 -0 -0 -0 -0 -0 0 0 0 0 0 0 0 0 0 0 0 0 0 0 0 0
0 0 0 0 0 0 0 0 0 0 0 -0 0 0 0 0 0 0 0 0 0 0 0 0 0 0 0 0 0 0 0 -0 -0 -0 -0 -0 0 0 0 0 0 0 0 0 0 0 0 0 0 0 0 0 0 0
0 0 0 0 0 0 0 0 0 -0 -0 0 0 0 0 0 0 0 0 0 0 0 0 0 0 0 0 0 0 0 0 -0 -0 0 0 0 0 0 0 0 0 0 0 0 0 0 0 0 0 0 0 0 0 0
0 0 0 0 0 -0 0 0 0 0 0 0 0 0 0 0 0 0 0 0 0 0 0 0 0 0 0 0 -0 -0 -0 -0 -0 0 0 0 0 0 0 0 0 0 0 0 0 0 0 0 0 0 0 0 0 0
0 0 0 -0 -0 0 0 0 0 0 0 0 0 0 0 0 0 0 0 0 0 0 0 0 0 0 -0 -0 -0 -0 -0 0 0 0 0 0 0 0 0 0 0 0 0 0 0 0 0 0 0 0 0 0 0 0
0 -0 -0 -0 0 0 0 0 0 0 0 0 0 0 0 0 0 0 0 0 0 0 0 0 -0 -0 -0 -0 -0 0 0 0 0 0 0 0 0 0 0 0 0 0 0 0 0 0 0 0 0 0 0 0 0 0
-0 0 0 -0 0 0 0 0 0 0 0 0 0 0 0 0 0 0 0 0 0 0 -0 -0 -0 -0 -0 0 0 0 0 0 0 0 0 0 0 0 0 0 0 0 0 0 0 0 0 0 0 0 0 0 0 0
0 0 0 0 0 0 0 0 0 0 0 0 0 0 0 0 0 0 0 0 0 -0 -0 -0 0 0 0 0 0 0 0 0 0 0 0 0 0 0 0 0 0 0 0 0 0 0 0 0 0 0 0 0 0 0
0 0 0 0 0 0 0 0 0 0 0 0 0 0 0 0 0 0 0 -0 0 0 0 0 0 0 0 0 0 0 0 0 0 0 0 0 0 0 0 0 0 0 0 0 0 0 0 0 0 0 0 0 0 0
0 0 0 0 0 0 0 0 0 0 0 0 0 0 0 0 0 0 0 0 0 0 0 0 0 0 0 0 0 0 0 0 0 0 0 0 0 0 0 0 0 0 0 0 0 0 0 0 0 0 0 0 0 0
Wind_Speed_500mb
40 37 37 34 34 33 32 30 28 30 31 30 27 22 21 17 17 14 13 8 11 8 24 26 20 21 15 11 8 6 13 1 5 6 6 5 6 5 8 9 9 16 9 10 14 9 12 16 20 16 30 49 52 61
39 38 36 35 35 33 31 30 29 25 26 29 28 21 19 18 19 18 21 17 19 19 19 27 36 37 36 31 12 9 10 3 3 6 4 7 7 6 9 7 8 8 6 3 6 7 13 7 14 24 21 42 51 60
37 37 35 33 31 30 27 26 28 26 25 29 29 22 23 21 22 22 26 22 15 10 28 14 7 13 20 38 35 12 10 13 10 1 4 6 11 8 6 10 10 7 3 10 15 4 18 29 28 32 45 55 59 64
35 36 33 32 31 30 27 25 28 26 25 28 33 29 24 25 25 26 30 19 14 8 6 5 9 5 13 23 35 38 26 9 8 9 6 8 9 11 10 12 16 13 12 15 20 16 31 18 42 51 55 53 61 66
37 36 34 33 31 28 26 25 27 27 26 28 31 25 26 25 25 25 30 29 18 10 6 19 41 19 32 30 29 36 37 25 8 5 8 9 19 12 15 13 16 11 7 6 6 27 24 41 48 52 55 60 63 68
33 33 34 33 31 27 26 25 24 23 19 24 29 23 14 21 23 23 21 33 35 23 4 7 7 13 14 16 13 21 37 24 13 9 11 14 18 11 8 6 5 12 8 13 17 30 35 42 44 48 53 58 63 70
29 29 30 30 29 26 25 21 19 18 20 24 24 34 20 23 31 33 12 10 17 20 7 9 5 11 16 15 4 11 28 15 14 8 11 17 7 9 6 15 7 9 9 16 25 26 39 40 48 49 49 56 62 65
33 31 32 30 27 26 22 18 16 18 20 16 17 19 22 29 32 30 26 21 13 11 4 6 8 12 26 13 10 15 15 17 16 8 9 11 9 12 8 5 7 11 19 21 27 33 35 39 41 45 50 58 64 67
32 30 32 31 26 26 23 22 20 18 18 16 25 19 24 28 19 15 18 16 13 8 5 7 6 4 9 7 6 14 15 7 11 6 6 6 7 9 5 11 12 14 18 28 32 30 31 34 41 46 52 58 61 71
34 31 30 26 24 21 20 20 20 18 13 10 27 11 9 11 13 25 14 11 12 7 10 8 17 9 6 9 8 5 11 6 6 9 11 8 9 8 6 6 11 16 23 24 28 34 38 39 43 48 51 53 58 70
33 29 26 25 22 18 18 15 14 13 21 28 10 5 18 31 18 7 8 10 12 8 13 14 22 12 4 6 2 7 2 3 5 7 8 7 5 2 1 4 11 17 16 21 23 27 32 35 39 45 52 55 59 70
35 29 25 24 24 20 20 15 14 21 13 13 12 22 24 8 6 6 8 9 9 6 13 9 6 8 3 3 4 7 5 7 3 19 7 4 5 9 2 8 12 13 19 22 24 28 31 31 35 40 45 49 60 68
34 31 25 22 21 19 19 15 20 19 16 9 4 9 9 7 8 9 12 8 7 8 7 6 4 7 9 10 7 7 10 4 9 4 3 6 12 6 4 8 11 15 19 22 25 26 26 29 33 38 42 46 53 69
24 26 24 21 19 16 18 16 17 24 13 7 7 8 8 9 10 9 5 7 5 8 9 9 6 11 15 9 9 7 5 7 6 6 5 9 10 6 9 10 13 17 21 24 25 25 27 30 30 34 39 44 50 63
24 22 21 22 24 22 24 19 15 37 8 5 7 8 11 12 2 11 7 5 5 6 5 4 8 13 8 6 6 6 8 8 2 7 7 14 11 12 12 13 15 18 22 24 25 27 28 28 30 34 38 42 47 55
19 21 27 23 20 17 27 22 26 32 7 6 8 8 10 4 11 13 18 12 12 5 5 7 4 5 7 5 8 7 3 6 5 7 24 19 16 14 14 14 16 18 22 23 26 27 27 29 31 33 36 41 44 51
18 24 15 17 20 18 24 36 21 13 8 6 10 19 13 14 8 3 2 9 0 9 4 4 6 6 5 7 3 5 5 10 22 22 23 19 17 15 14 15 17 20 22 23 25 27 29 30 31 35 40 44 42 47
22 13 17 17 30 30 32 24 12 9 9 15 11 12 17 14 3 2 5 6 7 5 6 4 6 8 5 2 8 9 20 25 24 24 22 19 17 16 15 16 17 20 21 22 22 24 30 33 36 40 41 43 44 48
21 18 19 27 37 23 11 12 6 7 14 7 17 15 6 5 3 4 8 4 6 6 8 6 6 3 3 5 15 21 21 24 26 24 22 20 17 16 16 15 15 16 18 21 25 24 27 30 33 36 40 42 45 50
22 16 19 35 42 7 6 7 13 7 7 7 12 10 7 4 4 6 7 5 9 4 7 6 4 4 4 6 18 18 23 25 27 27 23 19 16 15 14 13 12 14 15 17 18 28 26 30 33 37 41 43 45 50
30 22 30 38 34 5 3 7 8 7 6 7 2 2 2 5 7 4 4 13 8 6 5 7 7 14 14 18 18 21 25 22 20 22 22 20 15 13 13 12 12 13 15 17 20 24 29 31 33 35 38 40 40 41
26 35 33 23 7 9 5 9 3 2 5 4 1 6 4 3 6 8 13 6 7 8 6 8 9 19 21 20 24 25 26 25 26 25 24 20 16 14 13 12 11 14 17 19 21 23 25 28 32 31 34 36 36 39
38 25 14 7 5 8 5 11 9 9 5 5 7 4 4 2 7 17 4 9 5 13 10 11 15 20 23 26 28 28 27 28 26 23 20 18 17 15 14 14 14 14 16 19 20 22 24 28 31 32 33 36 37 38
26 15 7 9 10 8 9 11 7 2 3 4 4 4 6 5 13 4 3 6 18 20 21 23 22 25 26 27 26 27 25 23 22 20 17 15 15 14 13 13 14 15 16 17 19 22 24 26 30 30 33 35 39 38
8 9 8 5 8 7 8 9 7 4 7 10 8 4 6 10 5 5 6 12 23 19 24 22 21 25 27 27 27 23 20 19 19 18 13 12 12 11 10 12 14 17 18 18 21 23 25 26 28 31 31 34 39 38
7 10 11 15 9 8 8 9 13 14 7 6 6 5 15 7 7 7 6 17 20 23 24 20 22 26 23 24 25 24 19 18 17 16 13 10 7 6 6 5 7 14 18 19 21 23 25 26 28 30 30 31 36 37
7 10 12 12 7 10 6 5 5 6 6 6 6 7 9 7 6 5 11 13 24 23 20 18 21 26 29 28 28 23 20 18 17 16 13 11 10 10 9 8 7 8 13 17 19 22 24 25 27 28 29 29 30 33
7 5 7 15 9 6 0 3 5 6 5 7 8 2 3 6 5 4 9 14 21 22 21 19 20 23 25 27 27 25 23 22 21 18 16 14 12 11 10 10 9 13 14 22 22 22 24 21 24 24 27 28 30 30
7 6 6 12 6 5 4 4 8 7 2 6 5 5 6 7 17 13 14 20 25 25 25 26 27 29 30 28 25 22 19 16 13 13 9 9 9 7 7 7 10 12 12 17 26 25 32 21 25 23 26 26 28 27
8 8 2 9 3 2 4 3 6 2 11 14 15 18 18 15 12 11 15 21 24 23 23 28 32 31 30 30 26 21 15 10 7 7 5 9 6 4 5 7 9 11 13 13 14 17 23 21 20 20 24 25 30 30
16 8 5 5 6 4 6 10 13 16 13 17 18 25 20 15 19 26 25 23 19 25 30 30 28 26 25 24 20 18 18 16 17 18 16 11 9 5 5 7 8 9 11 12 13 17 18 17 19 20 24 27 30 31
9 9 11 6 5 10 7 5 7 8 8 11 11 15 18 12 8 14 27 29 24 28 26 28 28 25 23 23 22 25 25 21 19 16 14 11 8 9 8 8 9 10 11 13 15 17 19 19 20 22 23 26 29 31
7 10 11 10 8 7 8 8 6 7 7 6 6 7 9 8 8 11 25 30 21 27 28 27 25 26 28 28 29 28 18 12 10 6 3 2 2 10 11 8 10 11 10 10 11 12 17 22 23 24 26 27 28 30
Wind_Direction_500mb
290 289 288 287 287 286 286 286 280 272 267 263 270 268 248 251 244 251 237 265 227 232 277 281 264 262 260 242 252 30 257 293 198 236 254 308 290 305 280 238 186 197 209 199 225 241 253 21 328 340 336 324 322 319
287 286 286 286 286 285 284 279 278 281 265 257 258 260 240 239 232 244 244 247 257 234 261 278 270 257 246 237 237 231 325 268 281 261 254 280 287 267 295 273 208 257 237 271 240 268 295 55 327 324 342 323 319 317
288 289 286 284 283 284 283 281 278 278 272 250 250 268 240 237 233 240 251 260 261 276 297 279 290 282 229 223 215 212 232 233 239 241 321 304 274 283 270 267 288 272 223 251 288 285 354 331 334 349 335 323 318 316
298 289 285 285 283 280 280 279 278 280 275 255 245 258 252 241 224 250 254 266 260 262 275 240 309 282 213 195 207 221 245 200 240 281 252 254 248 263 277 279 276 285 259 276 282 15 334 351 339 333 320 320 316 315
299 297 290 284 281 279 277 276 271 276 274 258 240 251 267 228 222 241 251 243 258 229 296 288 295 283 229 234 244 220 227 223 180 257 234 243 274 298 276 283 267 295 339 322 296 342 339 316 324 318 322 323 322 320
301 301 293 286 280 274 273 272 271 279 285 281 239 226 230 223 221 215 222 245 245 234 273 283 27 257 199 202 217 225 222 219 201 209 266 272 279 291 303 280 325 60 8 344 330 321 321 310 313 324 323 324 323 322
295 304 305 292 278 271 269 267 274 278 285 291 242 220 231 239 207 201 189 165 149 180 234 269 289 177 176 175 184 166 182 189 197 230 243 260 256 261 272 269 2 50 346 325 325 328 314 326 325 326 329 326 324 323
286 294 297 296 285 272 264 245 259 274 288 273 218 221 242 230 220 203 225 189 163 182 203 269 265 224 184 182 177 181 168 189 202 243 255 265 280 228 253 243 83 21 345 337 324 326 319 324 328 333 332 332 330 332
281 284 292 291 292 270 255 239 253 264 282 238 214 237 211 192 202 207 193 188 207 180 217 234 248 280 197 124 160 190 177 184 204 220 225 229 256 223 354 34 18 358 335 327 330 332 338 338 338 338 337 337 337 334
273 283 287 285 290 270 252 244 255 262 277 228 180 183 177 169 168 156 140 154 194 225 225 253 245 247 280 185 163 206 198 206 200 205 169 216 247 100 38 18 355 343 336 342 345 344 344 343 342 341 342 341 341 337
261 274 284 282 277 267 243 249 247 269 190 167 169 133 138 145 146 151 159 192 178 224 210 236 242 236 280 264 108 205 247 225 225 185 220 227 185 136 113 337 349 344 351 346 341 338 341 342 343 344 347 348 344 343
252 264 274 278 269 254 234 246 231 207 190 185 175 131 144 172 167 191 193 175 218 243 192 224 179 214 246 209 266 208 240 220 239 169 225 189 114 140 136 360 355 354 352 349 347 346 348 352 355 354 354 351 350 349
252 252 259 270 261 252 222 232 207 218 228 159 154 141 145 172 201 219 189 191 206 196 155 129 170 161 200 205 230 240 230 215 173 215 212 72 109 88 31 12 11 7 3 0 356 356 0 2 3 5 0 360 358 360
247 251 253 255 248 245 202 217 228 206 187 181 170 171 227 176 232 214 281 62 41 128 155 197 182 189 199 185 234 233 219 215 217 211 77 107 114 96 62 34 24 19 13 9 7 9 10 11 11 12 10 5 3 5
238 255 247 249 244 236 209 193 194 197 204 214 217 222 211 239 224 132 164 166 144 153 192 243 207 205 206 249 235 236 204 226 37 61 102 127 108 97 67 44 37 28 21 21 20 21 20 21 18 15 12 7 7 7
237 264 248 245 220 211 187 190 188 192 211 230 231 254 218 231 225 195 202 192 158 175 215 234 251 238 224 233 223 235 337 68 106 115 120 122 110 88 71 58 48 40 37 37 36 29 25 22 17 14 12 10 7 9
237 240 237 193 189 168 176 182 169 186 218 219 233 239 257 246 197 142 129 96 267 164 207 203 222 234 224 242 135 45 69 119 125 103 104 108 104 94 81 72 61 53 49 45 38 29 24 20 19 17 14 12 10 9
216 236 193 186 181 168 173 189 176 195 231 230 248 208 207 253 297 145 137 144 152 206 225 238 267 233 247 292 111 115 111 97 106 114 113 111 104 93 85 77 70 60 51 43 37 27 21 20 18 15 11 8 9 7
209 193 171 181 171 158 143 181 194 224 226 218 237 258 258 283 273 151 168 109 227 246 292 264 242 295 50 58 119 125 121 126 126 118 112 108 104 95 86 80 72 59 49 40 35 28 23 18 16 12 10 9 10 7
174 180 167 174 175 134 134 168 186 243 230 231 228 239 239 236 250 190 182 199 208 206 245 241 97 97 242 81 92 107 115 130 132 129 120 111 103 95 91 86 72 56 48 41 31 30 22 17 17 12 9 8 9 6
155 154 163 180 183 156 197 176 197 218 282 261 38 202 191 196 205 212 185 187 181 227 223 219 117 78 82 86 98 118 127 134 135 128 126 123 115 103 95 82 71 57 47 36 28 24 21 17 11 9 7 7 8 3
153 163 160 168 166 196 218 208 226 180 200 214 209 211 179 211 198 193 149 172 232 208 212 130 110 122 115 108 118 123 122 112 108 113 109 117 111 97 82 67 57 52 42 32 24 19 14 11 8 11 7 7 6 4
162 161 136 151 165 191 238 179 189 199 234 152 153 221 169 224 141 156 181 207 220 172 153 141 123 119 120 126 126 126 127 124 121 116 111 103 96 88 77 63 54 46 32 23 17 13 10 6 5 8 5 6 8 7
154 156 182 193 199 183 182 184 186 224 211 177 208 180 170 136 161 205 195 187 157 150 141 135 130 128 131 136 136 136 140 128 120 114 111 109 99 87 81 70 56 42 30 16 13 10 6 4 4 4 2 2 5 6
137 179 186 209 207 198 204 167 184 183 234 189 201 150 154 167 196 207 146 151 149 150 145 146 145 145 150 141 143 136 140 139 131 119 104 106 106 98 83 74 60 42 26 18 9 6 2 0 359 0 1 359 0 4
214 184 197 197 186 213 203 177 205 193 171 229 135 220 177 184 205 116 68 149 159 149 154 155 156 152 140 151 151 152 146 137 134 121 107 96 86 75 70 47 57 22 16 13 4 1 358 357 356 357 357 357 355 360
196 218 190 212 221 202 191 277 206 151 168 204 155 202 187 171 87 70 106 93 130 139 143 146 152 153 149 145 144 140 134 131 129 126 116 103 89 79 70 58 69 31 7 12 9 2 1 357 355 355 355 357 356 356
266 228 191 181 183 94 188 225 236 183 102 244 200 102 108 39 91 99 102 130 134 137 132 132 147 147 144 146 145 143 137 130 119 116 112 101 91 79 71 67 35 14 10 1 12 5 6 2 1 1 0 358 354 357
223 205 160 157 71 212 137 302 338 77 256 263 121 92 93 80 110 104 128 143 144 141 135 133 133 139 141 140 140 139 136 138 141 150 151 132 120 60 49 36 15 5 2 342 346 1 1 15 13 13 10 359 355 1
191 154 144 150 101 76 55 358 29 83 73 67 108 112 104 108 102 90 137 146 151 153 150 145 143 148 148 145 140 134 128 128 131 158 150 117 108 79 37 13 0 356 358 3 357 354 1 16 8 8 6 6 2 10
151 125 103 66 82 79 93 106 120 114 96 79 102 125 123 119 115 117 123 129 148 148 147 149 151 153 152 151 150 144 123 110 105 104 109 109 104 81 49 38 25 24 22 24 22 16 24 15 17 17 15 13 10 12
146 173 148 136 128 145 123 62 68 69 72 95 94 115 130 120 91 143 129 118 149 150 151 150 146 138 141 137 133 137 138 121 108 105 100 105 95 79 59 49 42 38 33 24 26 29 28 25 22 21 18 14 12 12
113 107 112 117 131 160 156 135 111 101 82 88 74 86 74 91 113 148 135 122 135 149 146 145 142 138 134 135 143 152 151 141 137 129 123 126 137 128 92 62 49 54 47 42 34 25 16 15 16 16 14 13 13 13
Wind_Speed_850mb
40 37 37 34 34 33 32 30 28 30 31 30 27 22 21 17 17 14 13 8 11 8 24 26 20 21 15 11 8 6 13 1 5 6 6 5 6 5 8 9 9 16 9 10 14 9 12 16 20 16 30 49 52 61
39 38 36 35 35 33 31 30 29 25 26 29 28 21 19 18 19 18 21 17 19 19 19 27 36 37 36 31 12 9 10 3 3 6 4 7 7 6 9 7 8 8 6 3 6 7 13 7 14 24 21 42 51 60
37 37 35 33 31 30 27 26 28 26 25 29 29 22 23 21 22 22 26 22 15 10 28 14 7 13 20 38 35 12 10 13 10 1 4 6 11 8 6 10 10 7 3 10 15 4 18 29 28 32 45 55 59 64
35 36 33 32 31 30 27 25 28 26 25 28 33 29 24 25 25 26 30 19 14 8 6 5 9 5 13 23 35 38 26 9 8 9 6 8 9 11 10 12 16 13 12 15 20 16 31 18 42 51 55 53 61 66
37 36 34 33 31 28 26 25 27 27 26 28 31 25 26 25 25 25 30 29 18 10 6 19 41 19 32 30 29 36 37 25 8 5 8 9 19 12 15 13 16 11 7 6 6 27 24 41 48 52 55 60 63 68
33 33 34 33 31 27 26 25 24 23 19 24 29 23 14 21 23 23 21 33 35 23 4 7 7 13 14 16 13 21 37 24 13 9 11 14 18 11 8 6 5 12 8 13 17 30 35 42 44 48 53 58 63 70
29 29 30 30 29 26 25 21 19 18 20 24 24 34 20 23 31 33 12 10 17 20 7 9 5 11 16 15 4 11 28 15 14 8 11 17 7 9 6 15 7 9 9 16 25 26 39 40 48 49 49 56 62 65
33 31 32 30 27 26 22 18 16 18 20 16 17 19 22 29 32 30 26 21 13 11 4 6 8 12 26 13 10 15 15 17 16 8 9 11 9 12 8 5 7 11 19 21 27 33 35 39 41 45 50 58 64 67
32 30 32 31 26 26 23 22 20 18 18 16 25 19 24 28 19 15 18 16 13 8 5 7 6 4 9 7 6 14 15 7 11 6 6 6 7 9 5 11 12 14 18 28 32 30 31 34 41 46 52 58 61 71
34 31 30 26 24 21 20 20 20 18 13 10 27 11 9 11 13 25 14 11 12 7 10 8 17 9 6 9 8 5 11 6 6 9 11 8 9 8 6 6 11 16 23 24 28 34 38 39 43 48 51 53 58 70
33 29 26 25 22 18 18 15 14 13 21 28 10 5 18 31 18 7 8 10 12 8 13 14 22 12 4 6 2 7 2 3 5 7 8 7 5 2 1 4 11 17 16 21 23 27 32 35 39 45 52 55 59 70
35 29 25 24 24 20 20 15 14 21 13 13 12 22 24 8 6 6 8 9 9 6 13 9 6 8 3 3 4 7 5 7 3 19 7 4 5 9 2 8 12 13 19 22 24 28 31 31 35 40 45 49 60 68
34 31 25 22 21 19 19 15 20 19 16 9 4 9 9 7 8 9 12 8 7 8 7 6 4 7 9 10 7 7 10 4 9 4 3 6 12 6 4 8 11 15 19 22 25 26 26 29 33 38 42 46 53 69
24 26 24 21 19 16 18 16 17 24 13 7 7 8 8 9 10 9 5 7 5 8 9 9 6 11 15 9 9 7 5 7 6 6 5 9 10 6 9 10 13 17 21 24 25 25 27 30 30 34 39 44 50 63
24 22 21 22 24 22 24 19 15 37 8 5 7 8 11 12 2 11 7 5 5 6 5 4 8 13 8 6 6 6 8 8 2 7 7 14 11 12 12 13 15 18 22 24 25 27 28 28 30 34 38 42 47 55
19 21 27 23 20 17 27 22 26 32 7 6 8 8 10 4 11 13 18 12 12 5 5 7 4 5 7 5 8 7 3 6 5 7 24 19 16 14 14 14 16 18 22 23 26 27 27 29 31 33 36 41 44 51
18 24 15 17 20 18 24 36 21 13 8 6 10 19 13 14 8 3 2 9 0 9 4 4 6 6 5 7 3 5 5 10 22 22 23 19 17 15 14 15 17 20 22 23 25 27 29 30 31 35 40 44 42 47
22 13 17 17 30 30 32 24 12 9 9 15 11 12 17 14 3 2 5 6 7 5 6 4 6 8 5 2 8 9 20 25 24 24 22 19 17 16 15 16 17 20 21 22 22 24 30 33 36 40 41 43 44 48
21 18 19 27 37 23 11 12 6 7 14 7 17 15 6 5 3 4 8 4 6 6 8 6 6 3 3 5 15 21 21 24 26 24 22 20 17 16 16 15 15 16 18 21 25 24 27 30 33 36 40 42 45 50
22 16 19 35 42 7 6 7 13 7 7 7 12 10 7 4 4 6 7 5 9 4 7 6 4 4 4 6 18 18 23 25 27 27 23 19 16 15 14 13 12 14 15 17 18 28 26 30 33 37 41 43 45 50
30 22 30 38 34 5 3 7 8 7 6 7 2 2 2 5 7 4 4 13 8 6 5 7 7 14 14 18 18 21 25 22 20 22 22 20 15 13 13 12 12 13 15 17 20 24 29 31 33 35 38 40 40 41
26 35 33 23 7 9 5 9 3 2 5 4 1 6 4 3 6 8 13 6 7 8 6 8 9 19 21 20 24 25 26 25 26 25 24 20 16 14 13 12 11 14 17 19 21 23 25 28 32 31 34 36 36 39
38 25 14 7 5 8 5 11 9 9 5 5 7 4 4 2 7 17 4 9 5 13 10 11 15 20 23 26 28 28 27 28 26 23 20 18 17 15 14 14 14 14 16 19 20 22 24 28 31 32 33 36 37 38
26 15 7 9 10 8 9 11 7 2 3 4 4 4 6 5 13 4 3 6 18 20 21 23 22 25 26 27 26 27 25 23 22 20 17 15 15 14 13 13 14 15 16 17 19 22 24 26 30 30 33 35 39 38
8 9 8 5 8 7 8 9 7 4 7 10 8 4 6 10 5 5 6 12 23 19 24 22 21 25 27 27 27 23 20 19 19 18 13 12 12 11 10 12 14 17 18 18 21 23 25 26 28 31 31 34 39 38
7 10 11 15 9 8 8 9 13 14 7 6 6 5 15 7 7 7 6 17 20 23 24 20 22 26 23 24 25 24 19 18 17 16 13 10 7 6 6 5 7 14 18 19 21 23 25 26 28 30 30 31 36 37
7 10 12 12 7 10 6 5 5 6 6 6 6 7 9 7 6 5 11 13 24 23 20 18 21 26 29 28 28 23 20 18 17 16 13 11 10 10 9 8 7 8 13 17 19 22 24 25 27 28 29 29 30 33
7 5 7 15 9 6 0 3 5 6 5 7 8 2 3 6 5 4 9 14 21 22 21 19 20 23 25 27 27 25 23 22 21 18 16 14 12 11 10 10 9 13 14 22 22 22 24 21 24 24 27 28 30 30
7 6 6 12 6 5 4 4 8 7 2 6 5 5 6 7 17 13 14 20 25 25 25 26 27 29 30 28 25 22 19 16 13 13 9 9 9 7 7 7 10 12 12 17 26 25 32 21 25 23 26 26 28 27
8 8 2 9 3 2 4 3 6 2 11 14 15 18 18 15 12 11 15 21 24 23 23 28 32 31 30 30 26 21 15 10 7 7 5 9 6 4 5 7 9 11 13 13 14 17 23 21 20 20 24 25 30 30
16 8 5 5 6 4 6 10 13 16 13 17 18 25 20 15 19 26 25 23 19 25 30 30 28 26 25 24 20 18 18 16 17 18 16 11 9 5 5 7 8 9 11 12 13 17 18 17 19 20 24 27 30 31
9 9 11 6 5 10 7 5 7 8 8 11 11 15 18 12 8 14 27 29 24 28 26 28 28 25 23 23 22 25 25 21 19 16 14 11 8 9 8 8 9 10 11 13 15 17 19 19 20 22 23 26 29 31
7 10 11 10 8 7 8 8 6 7 7 6 6 7 9 8 8 11 25 30 21 27 28 27 25 26 28 28 29 28 18 12 10 6 3 2 2 10 11 8 10 11 10 10 11 12 17 22 23 24 26 27 28 30
Wind_Direction_850mb
290 289 288 287 287 286 286 286 280 272 267 263 270 268 248 251 244 251 237 265 227 232 277 281 264 262 260 242 252 30 257 293 198 236 254 308 290 305 280 238 186 197 209 199 225 241 253 21 328 340 336 324 322 319
287 286 286 286 286 285 284 279 278 281 265 257 258 260 240 239 232 244 244 247 257 234 261 278 270 257 246 237 237 231 325 268 281 261 254 280 287 267 295 273 208 257 237 271 240 268 295 55 327 324 342 323 319 317
288 289 286 284 283 284 283 281 278 278 272 250 250 268 240 237 233 240 251 260 261 276 297 279 290 282 229 223 215 212 232 233 239 241 321 304 274 283 270 267 288 272 223 251 288 285 354 331 334 349 335 323 318 316
298 289 285 285 283 280 280 279 278 280 275 255 245 258 252 241 224 250 254 266 260 262 275 240 309 282 213 195 207 221 245 200 240 281 252 254 248 263 277 279 276 285 259 276 282 15 334 351 339 333 320 320 316 315
299 297 290 284 281 279 277 276 271 276 274 258 240 251 267 228 222 241 251 243 258 229 296 288 295 283 229 234 244 220 227 223 180 257 234 243 274 298 276 283 267 295 339 322 296 342 339 316 324 318 322 323 322 320
301 301 293 286 280 274 273 272 271 279 285 281 239 226 230 223 221 215 222 245 245 234 273 283 27 257 199 202 217 225 222 219 201 209 266 272 279 291 303 280 325 60 8 344 330 321 321 310 313 324 323 324 323 322
295 304 305 292 278 271 269 267 274 278 285 291 242 220 231 239 207 201 189 165 149 180 234 269 289 177 176 175 184 166 182 189 197 230 243 260 256 261 272 269 2 50 346 325 325 328 314 326 325 326 329 326 324 323
286 294 297 296 285 272 264 245 259 274 288 273 218 221 242 230 220 203 225 189 163 182 203 269 265 224 184 182 177 181 168 189 202 243 255 265 280 228 253 243 83 21 345 337 324 326 319 324 328 333 332 332 330 332
281 284 292 291 292 270 255 239 253 264 282 238 214 237 211 192 202 207 193 188 207 180 217 234 248 280 197 124 160 190 177 184 204 220 225 229 256 223 354 34 18 358 335 327 330 332 338 338 338 338 337 337 337 334
273 283 287 285 290 270 252 244 255 262 277 228 180 183 177 169 168 156 140 154 194 225 225 253 245 247 280 185 163 206 198 206 200 205 169 216 247 100 38 18 355 343 336 342 345 344 344 343 342 341 342 341 341 337
261 274 284 282 277 267 243 249 247 269 190 167 169 133 138 145 146 151 159 192 178 224 210 236 242 236 280 264 108 205 247 225 225 185 220 227 185 136 113 337 349 344 351 346 341 338 341 342 343 344 347 348 344 343
252 264 274 278 269 254 234 246 231 207 190 185 175 131 144 172 167 191 193 175 218 243 192 224 179 214 246 209 266 208 240 220 239 169 225 189 114 140 136 360 355 354 352 349 347 346 348 352 355 354 354 351 350 349
252 252 259 270 261 252 222 232 207 218 228 159 154 141 145 172 201 219 189 191 206 196 155 129 170 161 200 205 230 240 230 215 173 215 212 72 109 88 31 12 11 7 3 0 356 356 0 2 3 5 0 360 358 360
247 251 253 255 248 245 202 217 228 206 187 181 170 171 227 176 232 214 281 62 41 128 155 197 182 189 199 185 234 233 219 215 217 211 77 107 114 96 62 34 24 19 13 9 7 9 10 11 11 12 10 5 3 5
238 255 247 249 244 236 209 193 194 197 204 214 217 222 211 239 224 132 164 166 144 153 192 243 207 205 206 249 235 236 204 226 37 61 102 127 108 97 67 44 37 28 21 21 20 21 20 21 18 15 12 7 7 7
237 264 248 245 220 211 187 190 188 192 211 230 231 254 218 231 225 195 202 192 158 175 215 234 251 238 224 233 223 235 337 68 106 115 120 122 110 88 71 58 48 40 37 37 36 29 25 22 17 14 12 10 7 9
237 240 237 193 189 168 176 182 169 186 218 219 233 239 257 246 197 142 129 96 267 164 207 203 222 234 224 242 135 45 69 119 125 103 104 108 104 94 81 72 61 53 49 45 38 29 24 20 19 17 14 12 10 9
216 236 193 186 181 168 173 189 176 195 231 230 248 208 207 253 297 145 137 144 152 206 225 238 267 233 247 292 111 115 111 97 106 114 113 111 104 93 85 77 70 60 51 43 37 27 21 20 18 15 11 8 9 7
209 193 171 181 171 158 143 181 194 224 226 218 237 258 258 283 273 151 168 109 227 246 292 264 242 295 50 58 119 125 121 126 126 118 112 108 104 95 86 80 72 59 49 40 35 28 23 18 16 12 10 9 10 7
174 180 167 174 175 134 134 168 186 243 230 231 228 239 239 236 250 190 182 199 208 206 245 241 97 97 242 81 92 107 115 130 132 129 120 111 103 95 91 86 72 56 48 41 31 30 22 17 17 12 9 8 9 6
155 154 163 180 183 156 197 176 197 218 282 261 38 202 191 196 205 212 185 187 181 227 223 219 117 78 82 86 98 118 127 134 135 128 126 123 115 103 95 82 71 57 47 36 28 24 21 17 11 9 7 7 8 3
153 163 160 168 166 196 218 208 226 180 200 214 209 211 179 211 198 193 149 172 232 208 212 130 110 122 115 108 118 123 122 112 108 113 109 117 111 97 82 67 57 52 42 32 24 19 14 11 8 11 7 7 6 4
162 161 136 151 165 191 238 179 189 199 234 152 153 221 169 224 141 156 181 207 220 172 153 141 123 119 120 126 126 126 127 124 121 116 111 103 96 88 77 63 54 46 32 23 17 13 10 6 5 8 5 6 8 7
154 156 182 193 199 183 182 184 186 224 211 177 208 180 170 136 161 205 195 187 157 150 141 135 130 128 131 136 136 136 140 128 120 114 111 109 99 87 81 70 56 42 30 16 13 10 6 4 4 4 2 2 5 6
137 179 186 209 207 198 204 167 184 183 234 189 201 150 154 167 196 207 146 151 149 150 145 146 145 145 150 141 143 136 140 139 131 119 104 106 106 98 83 74 60 42 26 18 9 6 2 0 359 0 1 359 0 4
214 184 197 197 186 213 203 177 205 193 171 229 135 220 177 184 205 116 68 149 159 149 154 155 156 152 140 151 151 152 146 137 134 121 107 96 86 75 70 47 57 22 16 13 4 1 358 357 356 357 357 357 355 360
196 218 190 212 221 202 191 277 206 151 168 204 155 202 187 171 87 70 106 93 130 139 143 146 152 153 149 145 144 140 134 131 129 126 116 103 89 79 70 58 69 31 7 12 9 2 1 357 355 355 355 357 356 356
266 228 191 181 183 94 188 225 236 183 102 244 200 102 108 39 91 99 102 130 134 137 132 132 147 147 144 146 145 143 137 130 119 116 112 101 91 79 71 67 35 14 10 1 12 5 6 2 1 1 0 358 354 357
223 205 160 157 71 212 137 302 338 77 256 263 121 92 93 80 110 104 128 143 144 141 135 133 133 139 141 140 140 139 136 138 141 150 151 132 120 60 49 36 15 5 2 342 346 1 1 15 13 13 10 359 355 1
191 154 144 150 101 76 55 358 29 83 73 67 108 112 104 108 102 90 137 146 151 153 150 145 143 148 148 145 140 134 128 128 131 158 150 117 108 79 37 13 0 356 358 3 357 354 1 16 8 8 6 6 2 10
151 125 103 66 82 79 93 106 120 114 96 79 102 125 123 119 115 117 123 129 148 148 147 149 151 153 152 151 150 144 123 110 105 104 109 109 104 81 49 38 25 24 22 24 22 16 24 15 17 17 15 13 10 12
146 173 148 136 128 145 123 62 68 69 72 95 94 115 130 120 91 143 129 118 149 150 151 150 146 138 141 137 133 137 138 121 108 105 100 105 95 79 59 49 42 38 33 24 26 29 28 25 22 21 18 14 12 12
113 107 112 117 131 160 156 135 111 101 82 88 74 86 74 91 113 148 135 122 135 149 146 145 142 138 134 135 143 152 151 141 137 129 123 126 137 128 92 62 49 54 47 42 34 25 16 15 16 16 14 13 13 13